TimeCDT,TemperatureF,Dew PointF,Humidity,Sea Level PressureIn,VisibilityMPH,Wind Direction,Wind SpeedMPH,Gust SpeedMPH,PrecipitationIn,Events,Conditions,WindDirDegrees,DateUTC
12:53 AM,48.0,42.1,80,29.99,10.0,Calm,Calm,-,N/A,,Clear,0,2012-10-04 05:53:00
1:53 AM,46.9,42.1,83,29.98,10.0,Calm,Calm,-,N/A,,Clear,0,2012-10-04 06:53:00
2:53 AM,45.0,41.0,86,29.96,10.0,Calm,Calm,-,N/A,,Clear,0,2012-10-04 07:53:00
3:53 AM,44.1,42.1,93,29.94,10.0,Calm,Calm,-,N/A,,Clear,0,2012-10-04 08:53:00
4:53 AM,43.0,41.0,93,29.94,10.0,Calm,Calm,-,N/A,,Clear,0,2012-10-04 09:53:00
5:53 AM,43.0,39.9,89,29.91,7.0,Calm,Calm,-,N/A,,Clear,0,2012-10-04 10:53:00
6:53 AM,42.1,41.0,96,29.91,10.0,East,4.6,-,N/A,,Scattered Clouds,100,2012-10-04 11:53:00
7:53 AM,48.0,45.0,89,29.89,10.0,Calm,Calm,-,N/A,,Clear,0,2012-10-04 12:53:00
8:53 AM,55.0,46.9,74,29.86,10.0,South,6.9,-,N/A,,Clear,180,2012-10-04 13:53:00
9:53 AM,59.0,46.0,62,29.84,10.0,SSW,13.8,20.7,N/A,,Clear,210,2012-10-04 14:53:00
10:53 AM,60.1,46.0,60,29.84,10.0,South,13.8,23.0,N/A,,Mostly Cloudy,180,2012-10-04 15:53:00
11:53 AM,62.1,45.0,53,29.85,10.0,SW,16.1,24.2,N/A,,Partly Cloudy,230,2012-10-04 16:53:00
12:53 PM,57.9,39.9,51,29.85,10.0,SSW,17.3,26.5,N/A,,Scattered Clouds,210,2012-10-04 17:53:00
1:53 PM,59.0,39.0,48,29.86,10.0,SW,13.8,26.5,N/A,,Clear,230,2012-10-04 18:53:00
2:53 PM,59.0,37.0,44,29.87,10.0,SW,18.4,34.5,N/A,,Clear,220,2012-10-04 19:53:00
3:53 PM,57.0,33.1,40,29.88,10.0,SW,21.9,32.2,N/A,,Clear,230,2012-10-04 20:53:00
5:53 PM,48.9,30.0,48,29.93,10.0,West,23.0,34.5,N/A,,Clear,260,2012-10-04 22:53:00
6:53 PM,46.0,30.0,54,29.94,10.0,WSW,15.0,25.3,N/A,,Clear,250,2012-10-04 23:53:00
7:53 PM,45.0,28.9,53,29.96,10.0,West,17.3,29.9,N/A,,Scattered Clouds,260,2012-10-05 00:53:00
8:53 PM,43.0,28.0,56,29.96,10.0,West,20.7,32.2,N/A,,Scattered Clouds,260,2012-10-05 01:53:00
9:53 PM,42.1,28.0,58,29.97,10.0,West,20.7,29.9,N/A,,Overcast,270,2012-10-05 02:53:00
10:53 PM,41.0,27.0,57,29.97,10.0,West,19.6,31.1,N/A,,Overcast,260,2012-10-05 03:53:00
11:53 PM,39.0,26.1,60,29.97,10.0,West,20.7,36.8,N/A,,Scattered Clouds,260,2012-10-05 04:53:00